Capitol Logistics 466


KPVD
Theodore Francis Green State Airport
Providence, Rhode Island, US
KRFD
Chicago/Rockford International Airport
Rockford, Illinois, US

Route Details

Aircraft Information
Primary: Boeing 737-800BCF
Backup: Not Available
Route Data
Distance: 790nm
Sched. Duration: 1h 44m
Avg. Duration: 2h 27m (+83m)
Times Flown: 10
Recm'd Route: PUT CTR CAM Q822 FNT J547 OBK V24 KRENA V100 RFD
Planned Altitude: 38,000ft
Origin Wx: KPVD 061151Z 36008KT 10SM BCFG SCT006 BKN300 22/21 A3003 RMK AO2 SLP167 BCFG SW T02220206 10222 20200 53019
Dest. Wx: KRFD 061154Z 00000KT 10SM FEW250 23/19 A3002 RMK AO2 SLP159 T02330194 10239 20206 53009
Notes:

Financial History
Total Freight: 482,089lbs
Average Load: 48,209lbs/flt
Fuel Used: 176,771lbs
Avg. Fuel Used: 17,677lbs/flt
Fuel Expense: $167,932
Avg. Fuel Expense: $16,793
Avg. Fuel Cost: $0.95/lbs
Total Gross Income: $629,536
Pilot Pay: $1,540
Total Expenses: $68,510
Total Revenue: $387,648
Average Revenue: $62,953.57